Regional Weather Roundup
Issued by NWS

Home | Current Version | Previous Version | Graphics & Text | Print | Product List | Glossary On
Versions: 1 2 3 4 5 6 7 8 9 10 11 12 13 14 15 16 17 18 19 20 21 22 23 24 25 26 27 28
000
ASUS45 KBOI 202010
RWRID

IDAHO REGIONAL WEATHER ROUNDUP
NATIONAL WEATHER SERVICE BOISE ID
200 PM MDT FRI APR 20 2018

NOTE: "FAIR" INDICATES FEW OR NO CLOUDS BELOW 12000 FEET
WITH NO SIGNIFICANT WEATHER AND/OR OBSTRUCTIONS TO VISIBILITY

IDZ012-014-202100-
SOUTHWEST IDAHO


CITY           SKY/WX    TMP DP  RH WIND       PRES   REMARKS
BOISE          SUNNY     65  31  28 NW20G26   30.11S
CALDWELL       SUNNY     66  32  28 W20       30.12F
MOUNTAIN HOME    N/A     64  30  27 NW31G38   30.08F
$$

IDZ016-017-202100-
SOUTHCENTRAL IDAHO


CITY           SKY/WX    TMP DP  RH WIND       PRES   REMARKS
BURLEY         SUNNY     60  29  30 W21G31    30.05F
JEROME         SUNNY     62  31  31 W18       30.07F
TWIN FALLS     SUNNY     61  30  31 W21G29    30.09S
$$

IDZ019>023-202100-
SOUTHEAST IDAHO


CITY           SKY/WX    TMP DP  RH WIND       PRES   REMARKS
IDAHO FALLS    SUNNY     65  25  22 N23G35    29.99S
POCATELLO      MOSUNNY   65  29  25 NW9       30.00F
REXBURG        SUNNY     65  24  21 N16G24    29.98F
$$

IDZ006-010-011-018-031-032-202100-
CENTRAL IDAHO MOUNTAINS


CITY           SKY/WX    TMP DP  RH WIND       PRES   REMARKS
MCCALL         SUNNY     56  27  32 NW8       30.13F
HAILEY         SUNNY     61  30  31 E10       30.05F
STANLEY          N/A     53  20  27 VRB7      30.13S
SALMON         SUNNY     61  23  23 E5        30.09F
CHALLIS        SUNNY     63  18  17 NE10      30.08F
$$

IDZ002-004-006-007-026-202100-
NORTHERN IDAHO


CITY           SKY/WX    TMP DP  RH WIND       PRES   REMARKS
LEWISTON       SUNNY     65  34  31 VRB3      30.18F
LOWELL           N/A     67  34  29 S3        30.15F
COEUR D`ALENE  PTSUNNY   58  34  40 VRB3      30.18F
MULLAN PASS    MOSUNNY   45  24  43 VRB5      30.19S
$$




USA.gov is the U.S. government's official web portal to all federal, state and local government web resources and services.